User: anonymous   Login
Location: Unspecified
(0.0000°N, 0.0000°E)
Time: 19:55:59
(UTC+00:00)
Language:

DSP F18 - Orbit

View from above orbital plane
View from above orbital plane
View from above satellite
View from above satellite

Ground track
Ground track

The orbit data is extracted from the following two-line orbital elements,

1 24737U 97008A   19083.07618981  .00000011  00000-0  00000+0 0  9999
2 24737  13.3194  23.7339 0000650 331.6779 220.9683  1.00267830  5114
Epoch (UTC): 24 March 2019 01:49:42
Eccentricity: 0.0000650
inclination: 13.3194°
perigee height: 35784 km
apogee height: 35790 km
right ascension of ascending node: 23.7339°
argument of perigee: 331.6779°
revolutions per day: 1.00267830
mean anomaly at epoch: 220.9683°
orbit number at epoch: 511

The dashed part of the orbit path shows where the satellite is in the earth's shadow,  

DLR